Weather History for Colby, KS

Change the Weather History Date:

Wednesday, January 9, 2013

  Actual Average (KGLD) Record (KGLD)
Temperature  
Mean Temperature 36 °F 30 °F  
Max Temperature 48 °F 42 °F 65 °F (1908)
Min Temperature 23 °F 17 °F -9 °F (1973)
Degree Days  
Heating Degree Days 30 35  
Month to date heating degree days 317  
Since 1 July heating degree days 2724  
Cooling Degree Days 0 0  
Month to date cooling degree days 0  
Year to date cooling degree days 0  
Moisture  
Dew Point 30 °F    
Average Humidity 82    
Maximum Humidity 100    
Minimum Humidity 58    
Precipitation  
Precipitation 0.00 in 0.01 in 0.47 in (1939)
Month to date precipitation 0.11  
Year to date precipitation 0.11  
Snow  
Snow 0.00 in 0.20 in - ()
Month to date snowfall 1.7  
Since 1 July snowfall 14.4  
Snow Depth -    
Sea Level Pressure  
Sea Level Pressure 30.29 in    
Wind  
Wind Speed 9 mph (SW)    
Max Wind Speed 17 mph    
Max Gust Speed 21 mph    
Visibility 10 miles    
Events      
T = Trace of Precipitation, MM = Missing Value Source: NWS Daily Summary

Daily Weather History Graph

Daily Weather History Graph

Search for Another Location

Airport:

Trip Planner

Search our weather history database for the weather conditions in past years. The results will help you decide how hot, cold, wet, or windy it might be!

Date:

Astronomy

Jan. 09, 2013 Rise Set
Actual Time 8:04 AM CST 5:39 PM CST
Civil Twilight 7:34 AM CST 6:08 PM CST
Nautical Twilight 7:01 AM CST 6:42 PM CST
Astronomical Twilight 6:28 AM CST 7:14 PM CST
Moon 5:45 AM CST (1/9) 3:42 PM CST (1/9)
Length of Visible Light 10h 34m
Length of Day
9h 34m
Waning Crescent, 6% of the Moon is Illuminated
Jan 9
Waning Crescent
Jan 11
New
Jan 18
First Quarter
Jan 26
Full
Feb 3
Last Quarter

Hourly Weather History & Observations

Time (CST) Temp. Windchill Dew Point Humidity Pressure Visibility Wind Dir Wind Speed Gust Speed Precip Events Conditions
12:15 AM 30.2 °F 22.6 °F 28.4 °F 93% 30.25 in 10.0 mi West 8.1 mph - N/A   Clear
12:35 AM 30.2 °F 22.6 °F 28.4 °F 93% 30.25 in 10.0 mi WNW 8.1 mph - N/A   Clear
12:55 AM 30.2 °F 21.3 °F 28.4 °F 93% 30.24 in 10.0 mi NW 10.4 mph - N/A   Clear
1:55 AM 30.2 °F 20.8 °F 28.4 °F 93% 30.25 in 10.0 mi WNW 11.5 mph - N/A   Clear
2:15 AM 30.2 °F 22.6 °F 26.6 °F 86% 30.25 in 10.0 mi NW 8.1 mph - N/A   Clear
2:35 AM 30.2 °F 21.3 °F 28.4 °F 93% 30.25 in 10.0 mi NW 10.4 mph - N/A   Clear
2:55 AM 30.2 °F 21.9 °F 26.6 °F 86% 30.24 in 10.0 mi NW 9.2 mph - N/A   Clear
3:15 AM 28.4 °F 18.5 °F 26.6 °F 93% 30.24 in 10.0 mi NW 11.5 mph - N/A   Clear
3:35 AM 28.4 °F 17.5 °F 26.6 °F 93% 30.22 in 10.0 mi NW 13.8 mph - N/A   Clear
3:55 AM 30.2 °F 24.3 °F 26.6 °F 86% 30.25 in 10.0 mi WNW 5.8 mph - N/A   Clear
4:15 AM 28.4 °F 21.2 °F 26.6 °F 93% 30.26 in 10.0 mi West 6.9 mph - N/A   Clear
4:55 AM 26.6 °F 17.5 °F 24.8 °F 93% 30.29 in 10.0 mi WSW 9.2 mph - N/A   Clear
5:15 AM 26.6 °F 18.2 °F 26.6 °F 100% 30.30 in 10.0 mi WSW 8.1 mph - N/A   Clear
5:35 AM 26.6 °F 18.2 °F 26.6 °F 100% 30.30 in 10.0 mi West 8.1 mph - N/A   Clear
5:55 AM 26.6 °F 19.1 °F 24.8 °F 93% 30.30 in 10.0 mi West 6.9 mph - N/A   Clear
6:15 AM 26.6 °F 18.2 °F 24.8 °F 93% 30.30 in 10.0 mi West 8.1 mph - N/A   Clear
6:35 AM 26.6 °F 18.2 °F 23.0 °F 86% 30.32 in 10.0 mi WSW 8.1 mph - N/A   Clear
6:55 AM 26.6 °F 18.2 °F 23.0 °F 86% 30.32 in 10.0 mi West 8.1 mph - N/A   Clear
7:15 AM 24.8 °F 16.9 °F 23.0 °F 93% 30.34 in 10.0 mi West 6.9 mph - N/A   Clear
7:35 AM 24.8 °F 15.3 °F 23.0 °F 93% 30.34 in 10.0 mi West 9.2 mph - N/A   Clear
7:55 AM 24.8 °F 16.1 °F 23.0 °F 93% 30.35 in 10.0 mi WSW 8.1 mph - N/A   Clear
8:15 AM 24.8 °F 16.9 °F 23.0 °F 93% 30.36 in 10.0 mi SW 6.9 mph - N/A   Clear
8:35 AM 23.0 °F 15.8 °F 23.0 °F 100% 30.37 in 10.0 mi WSW 5.8 mph - N/A   Clear
8:55 AM 26.6 °F 19.1 °F 23.0 °F 86% 30.38 in 10.0 mi SSW 6.9 mph - N/A   Clear
9:15 AM 26.6 °F 18.2 °F 24.8 °F 93% 30.39 in 10.0 mi SW 8.1 mph - N/A   Clear
9:35 AM 28.4 °F 21.2 °F 26.6 °F 93% 30.40 in 10.0 mi SW 6.9 mph - N/A   Clear
9:55 AM 32.0 °F 25.6 °F 28.4 °F 87% 30.40 in 10.0 mi WSW 6.9 mph - N/A   Clear
10:15 AM 33.8 °F 27.7 °F 32.0 °F 93% 30.40 in 10.0 mi SW 6.9 mph - N/A   Clear
10:55 AM 37.4 °F 30.8 °F 32.0 °F 81% 30.39 in 10.0 mi SW 9.2 mph - N/A   Clear
11:35 AM 41.0 °F 36.4 °F 33.8 °F 76% 30.36 in 10.0 mi SSW 6.9 mph - N/A   Clear
12:35 PM 44.6 °F 40.2 °F 35.6 °F 71% 30.34 in 10.0 mi WSW 8.1 mph - N/A   Clear
12:55 PM 46.4 °F 41.9 °F 35.6 °F 66% 30.32 in 10.0 mi WSW 9.2 mph - N/A   Clear
1:15 PM 46.4 °F 42.9 °F 35.6 °F 66% 30.31 in 10.0 mi SSW 6.9 mph - N/A   Clear
1:35 PM 46.4 °F 42.4 °F 35.6 °F 66% 30.30 in 10.0 mi SSW 8.1 mph - N/A   Clear
1:55 PM 48.2 °F - 35.6 °F 62% 30.29 in 10.0 mi SSW 9.2 mph - N/A   Clear
2:15 PM 48.2 °F - 35.6 °F 62% 30.29 in 10.0 mi SSW 9.2 mph - N/A   Clear
2:35 PM 48.2 °F - 33.8 °F 58% 30.29 in 10.0 mi SSW 8.1 mph - N/A   Clear
2:55 PM 46.4 °F 42.9 °F 35.6 °F 66% 30.28 in 10.0 mi SSW 6.9 mph - N/A   Clear
3:15 PM 48.2 °F - 35.6 °F 62% 30.27 in 10.0 mi SSW 6.9 mph - N/A   Clear
3:35 PM 48.2 °F - 35.6 °F 62% 30.27 in 10.0 mi SSW 6.9 mph - N/A   Clear
3:55 PM 48.2 °F - 35.6 °F 62% 30.27 in 10.0 mi SSW 5.8 mph - N/A   Clear
4:15 PM 48.2 °F - 33.8 °F 58% 30.26 in 10.0 mi South 6.9 mph - N/A   Clear
4:35 PM 46.4 °F 43.5 °F 35.6 °F 66% 30.25 in 10.0 mi SSE 5.8 mph - N/A   Clear
4:55 PM 44.6 °F 40.2 °F 33.8 °F 66% 30.25 in 10.0 mi SSE 8.1 mph - N/A   Clear
5:15 PM 41.0 °F 35.8 °F 33.8 °F 76% 30.25 in 10.0 mi SE 8.1 mph - N/A   Clear
5:35 PM 41.0 °F 34.7 °F 33.8 °F 76% 30.25 in 10.0 mi SSE 10.4 mph - N/A   Clear
5:55 PM 41.0 °F 33.9 °F 33.8 °F 76% 30.26 in 10.0 mi SSE 12.7 mph - N/A   Clear
6:15 PM 41.0 °F 34.7 °F 33.8 °F 76% 30.25 in 10.0 mi SSE 10.4 mph - N/A   Clear
6:35 PM 41.0 °F 32.8 °F 33.8 °F 76% 30.26 in 10.0 mi SSE 16.1 mph - N/A   Clear
6:55 PM 41.0 °F 32.8 °F 33.8 °F 76% 30.25 in 10.0 mi SSE 16.1 mph - N/A   Clear
7:15 PM 37.4 °F 28.2 °F 32.0 °F 81% 30.26 in 10.0 mi South 16.1 mph 20.7 mph N/A   Clear
7:35 PM 37.4 °F 28.5 °F 32.0 °F 81% 30.25 in 10.0 mi South 15.0 mph - N/A   Clear
8:15 PM 37.4 °F 27.8 °F 32.0 °F 81% 30.25 in 10.0 mi South 17.3 mph - N/A   Clear
8:35 PM 37.4 °F 28.2 °F 32.0 °F 81% 30.25 in 10.0 mi South 16.1 mph - N/A   Clear
8:55 PM 37.4 °F 28.9 °F 32.0 °F 81% 30.24 in 10.0 mi South 13.8 mph - N/A   Clear
9:15 PM 35.6 °F 26.2 °F 32.0 °F 87% 30.24 in 10.0 mi South 15.0 mph - N/A   Clear
9:35 PM 35.6 °F 26.6 °F 32.0 °F 87% 30.24 in 10.0 mi South 13.8 mph 19.6 mph N/A   Clear
9:55 PM 35.6 °F 26.2 °F 32.0 °F 87% 30.24 in 10.0 mi South 15.0 mph - N/A   Clear
10:15 PM 35.6 °F 26.6 °F 32.0 °F 87% 30.24 in 10.0 mi South 13.8 mph - N/A   Clear
10:35 PM 35.6 °F 27.1 °F 32.0 °F 87% 30.24 in 10.0 mi SSE 12.7 mph - N/A   Clear
10:55 PM 35.6 °F 27.5 °F 32.0 °F 87% 30.24 in 10.0 mi South 11.5 mph - N/A   Clear
11:35 PM 35.6 °F 28.0 °F 32.0 °F 87% 30.23 in 10.0 mi South 10.4 mph - N/A   Clear
11:55 PM 35.6 °F 28.6 °F 32.0 °F 87% 30.23 in 10.0 mi South 9.2 mph - N/A   Clear